Indian Springs, NV

4:24 AM PST on January 17, 2018 (GMT -0800)
Indian Springs Air Force Auxiliary

Weather History for KINS - March, 2012

Change the Weather History Date:

Saturday, March 31, 2012

  Actual Average (KDRA) Record (KDRA)
Temperature  
Mean Temperature 65 °F -  
Max Temperature 79 °F 65 °F 84 °F (2011)
Min Temperature 51 °F 41 °F 29 °F (1999)
Growing Degree Days 15 (Base 50)    
Moisture  
Dew Point 18 °F    
Average Humidity 19    
Maximum Humidity 37    
Minimum Humidity 7    
Precipitation  
Precipitation 0.00 in - - ()
Sea Level Pressure  
Sea Level Pressure 29.66 in    
Wind  
Wind Speed 12 mph (SW)    
Max Wind Speed 37 mph    
Max Gust Speed 47 mph    
Visibility 10 miles    
Events      
Averages and records for this station are not official NWS values.
T = Trace of Precipitation, MM = Missing Value Source: NWS Daily Summary

Daily Weather History Graph

Daily Weather History Graph

Search for Another Location

Airport or City:

Trip Planner

Search our weather history database for the weather conditions in past years. The results will help you decide how hot, cold, wet, or windy it might be!

Date:

Astronomy

Mar. 31, 2012 Rise Set
Actual Time 6:29 AM PDT 7:04 PM PDT
Civil Twilight 6:03 AM PDT 7:30 PM PDT
Nautical Twilight 5:32 AM PDT 8:01 PM PDT
Astronomical Twilight 5:01 AM PDT 8:32 PM PDT
Moon 12:46 PM PDT (3/31) 2:18 AM PDT (3/31)
Length of Visible Light 13h 27m
Length of Day
12h 35m
First Quarter, 60% of the Moon is Illuminated
Mar 31
First Quarter
Apr 6
Full
Apr 13
Last Quarter
Apr 21
New
Apr 29
First Quarter

Hourly Weather History & Observations

Time (PDT) Temp. Dew Point Humidity Pressure Visibility Wind Dir Wind Speed Gust Speed Precip Events Conditions
12:55 AM 58.3 °F 25.3 °F 28% 29.79 in 10.0 mi Calm Calm - N/A   Clear
1:55 AM 55.2 °F 25.5 °F 32% 29.78 in 10.0 mi Calm Calm - N/A   Clear
2:55 AM 55.9 °F 26.1 °F 32% 29.76 in 10.0 mi Calm Calm - N/A   Clear
3:55 AM 51.6 °F 23.0 °F 33% 29.75 in 10.0 mi NNW 4.6 mph - N/A   Clear
4:55 AM 52.7 °F 24.8 °F 34% 29.75 in 10.0 mi Calm Calm - N/A   Clear
5:55 AM 55.0 °F 26.2 °F 33% 29.74 in 10.0 mi Variable 3.5 mph - N/A   Clear
6:55 AM 57.9 °F 29.1 °F 33% 29.73 in 10.0 mi Calm Calm - N/A   Clear
7:55 AM 63.1 °F 28.0 °F 27% 29.73 in 10.0 mi ESE 18.4 mph 25.3 mph N/A   Clear
8:55 AM 65.5 °F 24.1 °F 21% 29.72 in 10.0 mi East 21.9 mph - N/A   Clear
9:55 AM 72.9 °F 19.9 °F 14% 29.72 in 10.0 mi East 11.5 mph - N/A   Clear
10:55 AM 77.2 °F 9.5 °F 8% 29.67 in 10.0 mi SW 12.7 mph 21.9 mph N/A   Clear
11:22 AM 78.8 °F 10.4 °F 7% 29.66 in 10.0 mi West 16.1 mph 20.7 mph N/A   Partly Cloudy
11:55 AM 79.5 °F 10.6 °F 7% 29.63 in 10.0 mi SW 24.2 mph 33.4 mph N/A   Partly Cloudy
12:55 PM 78.4 °F 12.2 °F 8% 29.63 in 10.0 mi SW 24.2 mph 43.7 mph N/A   Partly Cloudy
1:55 PM 77.7 °F 9.3 °F 7% 29.65 in 10.0 mi SW 36.8 mph 47.2 mph N/A   Partly Cloudy
2:55 PM 78.8 °F 10.0 °F 7% 29.62 in 10.0 mi SSW 20.7 mph 36.8 mph N/A   Clear
3:55 PM 78.8 °F 10.8 °F 8% 29.59 in 10.0 mi SW 24.2 mph 35.7 mph N/A   Clear
4:55 PM 78.3 °F 11.5 °F 8% 29.58 in 10.0 mi SSW 28.8 mph 47.2 mph N/A   Clear
5:55 PM 75.0 °F 18.7 °F 12% 29.58 in 10.0 mi SW 27.6 mph 43.7 mph N/A   Clear
6:55 PM 70.9 °F 18.1 °F 13% 29.57 in 10.0 mi SW 36.8 mph 43.7 mph N/A   Clear
7:55 PM 67.5 °F 1.4 °F 7% 29.58 in 10.0 mi SSW 32.2 mph 40.3 mph N/A   Clear
8:55 PM 65.8 °F 5.7 °F 9% 29.57 in 10.0 mi SW 24.2 mph 41.4 mph N/A   Clear
9:55 PM 62.6 °F 19.0 °F 19% 29.59 in 10.0 mi SW 33.4 mph 47.2 mph N/A   Clear
10:55 PM 60.6 °F 29.5 °F 31% 29.60 in 10.0 mi South 26.5 mph 29.9 mph N/A   Clear
11:55 PM 59.2 °F 33.1 °F 37% 29.61 in 10.0 mi SSW 25.3 mph 32.2 mph N/A   Clear